When you browse on this site, cookies collect data to enhance your experience and personalize the content and advertising you see.
Visit our Privacy Policy to learn more. By continuing to use the site, you agree to this use of cookies and data.
  • In Czech Republic
  • List of Countries
  • For 7 days
  • Water Temperature
  • Weather Map
  • Weather Widgets
  • user-avatar
    Login

    Hourly Weather Akra

    Today, 20 September, Friday

    Time Temperature Precipitation Wind Pressure Humidity
    00:00 +27°C° 0 mm 2 mps 758 mmHg 90%
    01:00 +27°C° 0.1 mm 2 mps 758 mmHg 90%
    02:00 +27°C° 0.1 mm 3 mps 757 mmHg 90%
    03:00 +27°C° 0.1 mm 3 mps 757 mmHg 89%
    04:00 +27°C° 0 mm 3 mps 757 mmHg 90%
    05:00 +26°C° 0 mm 3 mps 758 mmHg 90%
    06:00 +26°C° 0 mm 3 mps 759 mmHg 90%
    07:00 +27°C° 0.1 mm 2 mps 759 mmHg 87%
    08:00 +28°C° 0.1 mm 2 mps 759 mmHg 83%
    09:00 +29°C° 0.1 mm 2 mps 759 mmHg 80%
    10:00 +29°C° 0.1 mm 2 mps 759 mmHg 76%
    11:00 +30°C° 0.1 mm 3 mps 758 mmHg 73%
    12:00 +32°C° 0.1 mm 4 mps 758 mmHg 69%
    13:00 +32°C° 0.1 mm 4 mps 757 mmHg 69%
    14:00 +32°C° 0.1 mm 5 mps 756 mmHg 70%
    15:00 +32°C° 0.1 mm 5 mps 756 mmHg 70%
    16:00 +30°C° 0 mm 5 mps 756 mmHg 74%
    17:00 +29°C° 0 mm 5 mps 757 mmHg 79%
    18:00 +28°C° 0 mm 5 mps 758 mmHg 83%
    19:00 +28°C° 0 mm 5 mps 758 mmHg 84%
    20:00 +27°C° 0 mm 5 mps 758 mmHg 85%
    21:00 +27°C° 0 mm 4 mps 759 mmHg 87%
    22:00 +27°C° 0 mm 4 mps 759 mmHg 87%
    23:00 +27°C° 0 mm 4 mps 758 mmHg 87%

    Tomorrow, 21 September, Saturday

    Time Temperature Precipitation Wind Pressure Humidity
    00:00 +27°C° 0 mm 4 mps 758 mmHg 88%
    01:00 +27°C° 0.1 mm 4 mps 758 mmHg 88%
    02:00 +27°C° 0.1 mm 4 mps 758 mmHg 88%
    03:00 +27°C° 0.1 mm 4 mps 757 mmHg 87%
    04:00 +27°C° 0.2 mm 4 mps 758 mmHg 88%
    05:00 +27°C° 0.2 mm 3 mps 758 mmHg 88%
    06:00 +26°C° 0.2 mm 3 mps 758 mmHg 88%
    07:00 +27°C° 0.2 mm 4 mps 759 mmHg 84%
    08:00 +28°C° 0.2 mm 4 mps 759 mmHg 79%
    09:00 +30°C° 0.2 mm 4 mps 759 mmHg 75%
    10:00 +29°C° 1.5 mm 4 mps 759 mmHg 77%
    11:00 +29°C° 1.5 mm 3 mps 758 mmHg 78%
    12:00 +29°C° 1.5 mm 2 mps 758 mmHg 80%
    13:00 +28°C° 1.4 mm 3 mps 758 mmHg 82%
    14:00 +28°C° 1.4 mm 3 mps 757 mmHg 83%
    15:00 +27°C° 1.4 mm 3 mps 757 mmHg 85%
    16:00 +27°C° 0.2 mm 3 mps 757 mmHg 86%
    17:00 +27°C° 0.2 mm 4 mps 757 mmHg 86%
    18:00 +26°C° 0.2 mm 5 mps 757 mmHg 87%
    19:00 +26°C° 0 mm 4 mps 758 mmHg 87%
    20:00 +26°C° 0 mm 3 mps 758 mmHg 88%
    21:00 +26°C° 0 mm 3 mps 758 mmHg 89%
    22:00 +26°C° 0.1 mm 3 mps 758 mmHg 90%
    23:00 +26°C° 0.1 mm 3 mps 758 mmHg 90%

    Day after tomorrow, 22 September, Sunday

    Time Temperature Precipitation Wind Pressure Humidity
    00:00 +25°C° 0.1 mm 3 mps 758 mmHg 91%
    01:00 +25°C° 0 mm 3 mps 758 mmHg 91%
    02:00 +25°C° 0 mm 3 mps 758 mmHg 92%
    03:00 +25°C° 0 mm 3 mps 757 mmHg 92%
    04:00 +25°C° 0 mm 3 mps 758 mmHg 91%
    05:00 +25°C° 0 mm 3 mps 758 mmHg 90%
    06:00 +25°C° 0 mm 3 mps 758 mmHg 90%
    07:00 +27°C° 0 mm 3 mps 759 mmHg 83%
    08:00 +28°C° 0 mm 3 mps 759 mmHg 76%
    09:00 +30°C° 0 mm 4 mps 759 mmHg 68%
    10:00 +32°C° 0 mm 4 mps 758 mmHg 66%
    11:00 +33°C° 0 mm 5 mps 758 mmHg 63%
    12:00 +34°C° 0 mm 5 mps 757 mmHg 60%
    13:00 +33°C° 0.2 mm 6 mps 757 mmHg 63%
    14:00 +33°C° 0.2 mm 6 mps 757 mmHg 66%
    15:00 +32°C° 0.2 mm 6 mps 756 mmHg 69%
    16:00 +30°C° 0 mm 6 mps 756 mmHg 73%
    17:00 +29°C° 0 mm 6 mps 756 mmHg 77%
    18:00 +28°C° 0 mm 6 mps 757 mmHg 81%
    19:00 +27°C° 0 mm 5 mps 757 mmHg 83%
    20:00 +27°C° 0 mm 5 mps 757 mmHg 84%
    21:00 +27°C° 0 mm 4 mps 757 mmHg 85%
    22:00 +26°C° 0 mm 4 mps 758 mmHg 86%
    23:00 +26°C° 0 mm 4 mps 758 mmHg 87%

    23 September, Monday

    Time Temperature Precipitation Wind Pressure Humidity
    00:00 +26°C° 0 mm 4 mps 758 mmHg 88%
    01:00 +26°C° 0 mm 4 mps 758 mmHg 88%
    02:00 +26°C° 0 mm 4 mps 758 mmHg 88%
    03:00 +26°C° 0 mm 4 mps 757 mmHg 88%
    04:00 +26°C° 0 mm 4 mps 758 mmHg 88%
    05:00 +26°C° 0 mm 4 mps 758 mmHg 88%
    06:00 +26°C° 0 mm 5 mps 759 mmHg 88%
    07:00 +27°C° 0 mm 5 mps 759 mmHg 84%
    08:00 +28°C° 0 mm 5 mps 759 mmHg 79%
    09:00 +29°C° 0 mm 5 mps 759 mmHg 75%
    10:00 +30°C° 0 mm 5 mps 759 mmHg 71%
    11:00 +32°C° 0 mm 5 mps 758 mmHg 67%
    12:00 +33°C° 0 mm 4 mps 758 mmHg 64%
    13:00 +32°C° 1.6 mm 5 mps 757 mmHg 69%
    14:00 +30°C° 1.6 mm 5 mps 757 mmHg 74%
    15:00 +29°C° 1.6 mm 5 mps 756 mmHg 79%
    16:00 +29°C° 0 mm 5 mps 756 mmHg 80%
    17:00 +28°C° 0 mm 5 mps 756 mmHg 82%
    18:00 +28°C° 0 mm 5 mps 757 mmHg 83%
    19:00 +27°C° 0 mm 4 mps 757 mmHg 85%
    20:00 +27°C° 0 mm 4 mps 758 mmHg 87%
    21:00 +27°C° 0 mm 4 mps 758 mmHg 89%
    22:00 +27°C° 0.1 mm 4 mps 758 mmHg 89%
    23:00 +27°C° 0.1 mm 5 mps 758 mmHg 90%

    24 September, Tuesday

    Time Temperature Precipitation Wind Pressure Humidity
    00:00 +26°C° 0.1 mm 6 mps 758 mmHg 90%
    01:00 +26°C° 0 mm 5 mps 758 mmHg 90%
    02:00 +26°C° 0 mm 5 mps 758 mmHg 90%
    03:00 +26°C° 0 mm 4 mps 758 mmHg 90%
    04:00 +26°C° 0 mm 4 mps 758 mmHg 90%
    05:00 +26°C° 0 mm 4 mps 758 mmHg 90%
    06:00 +26°C° 0 mm 4 mps 759 mmHg 89%
    07:00 +26°C° 0 mm 4 mps 759 mmHg 86%
    08:00 +27°C° 0 mm 4 mps 759 mmHg 84%
    09:00 +28°C° 0 mm 4 mps 760 mmHg 81%
    10:00 +29°C° 0 mm 4 mps 759 mmHg 78%
    11:00 +29°C° 0 mm 4 mps 759 mmHg 75%
    12:00 +30°C° 0 mm 4 mps 758 mmHg 72%
    13:00 +32°C° 0.5 mm 4 mps 757 mmHg 70%
    14:00 +32°C° 0.5 mm 5 mps 757 mmHg 68%
    15:00 +33°C° 0.5 mm 5 mps 756 mmHg 66%
    16:00 +30°C° 0.5 mm 5 mps 757 mmHg 71%
    17:00 +29°C° 0.5 mm 5 mps 757 mmHg 77%
    18:00 +28°C° 0.5 mm 5 mps 757 mmHg 82%
    19:00 +27°C° 0 mm 5 mps 757 mmHg 84%
    20:00 +27°C° 0 mm 5 mps 758 mmHg 86%
    21:00 +27°C° 0 mm 4 mps 758 mmHg 87%
    22:00 +27°C° 0 mm 5 mps 758 mmHg 88%
    23:00 +26°C° 0 mm 5 mps 758 mmHg 89%

    25 September, Wednesday

    Time Temperature Precipitation Wind Pressure Humidity
    00:00 +26°C° 0 mm 5 mps 758 mmHg 90%
    01:00 +26°C° 0 mm 5 mps 758 mmHg 90%
    02:00 +26°C° 0 mm 5 mps 758 mmHg 91%
    03:00 +26°C° 0 mm 4 mps 757 mmHg 91%
    04:00 +26°C° 0.1 mm 4 mps 758 mmHg 91%
    05:00 +26°C° 0.1 mm 4 mps 758 mmHg 91%
    06:00 +26°C° 0.1 mm 4 mps 759 mmHg 91%
    07:00 +27°C° 0.1 mm 4 mps 759 mmHg 86%
    08:00 +28°C° 0.1 mm 4 mps 759 mmHg 82%
    09:00 +29°C° 0.1 mm 3 mps 760 mmHg 77%
    10:00 +29°C° 0.1 mm 4 mps 759 mmHg 75%
    11:00 +30°C° 0.1 mm 4 mps 758 mmHg 73%
    12:00 +30°C° 0.1 mm 4 mps 758 mmHg 71%
    13:00 +32°C° 0.1 mm 4 mps 757 mmHg 69%
    14:00 +32°C° 0.1 mm 5 mps 757 mmHg 68%
    15:00 +33°C° 0.1 mm 5 mps 756 mmHg 66%
    16:00 +30°C° 0.1 mm 5 mps 756 mmHg 71%
    17:00 +29°C° 0.1 mm 6 mps 757 mmHg 76%
    18:00 +28°C° 0.1 mm 6 mps 757 mmHg 80%
    19:00 +27°C° 0 mm 5 mps 757 mmHg 82%
    20:00 +27°C° 0 mm 5 mps 758 mmHg 84%
    21:00 +27°C° 0 mm 5 mps 758 mmHg 85%
    22:00 +27°C° 0 mm 4 mps 758 mmHg 86%
    23:00 +26°C° 0 mm 4 mps 758 mmHg 87%
    Show more